Time,TemperatureF,DewpointF,PressureIn,WindDirection,WindDirectionDegrees,WindSpeedMPH,WindSpeedGustMPH,Humidity,HourlyPrecipIn,Conditions,Clouds,dailyrainin,SolarRadiationWatts/m^2,SoftwareType,DateUTC
2013-08-20 00:02:00,53.0,53.0,-100.00,NNE,22,2.0,3.0,100,0.00,,,0.54,0.000000,,2013-08-20 08:02:00,
2013-08-20 00:11:00,53.0,53.0,-100.00,NNE,22,2.0,3.0,100,0.00,,,0.54,0.000000,,2013-08-20 08:11:00,
2013-08-20 00:21:00,53.0,53.0,-100.00,NNE,22,2.0,3.0,100,0.00,,,0.54,0.000000,,2013-08-20 08:21:00,
2013-08-20 00:52:00,52.0,52.0,-100.00,West,265,1.0,3.0,100,0.01,,,0.55,0.000000,,2013-08-20 08:52:00,
2013-08-20 01:01:00,52.0,52.0,-100.00,West,265,1.0,3.0,100,0.01,,,0.55,0.000000,,2013-08-20 09:01:00,
2013-08-20 01:11:00,52.0,52.0,-100.00,West,265,1.0,3.0,100,0.01,,,0.55,0.000000,,2013-08-20 09:11:00,
2013-08-20 01:21:00,52.0,52.0,-100.00,West,265,1.0,3.0,100,0.01,,,0.55,0.000000,,2013-08-20 09:21:00,
2013-08-20 01:53:00,51.0,51.0,-100.00,WNW,302,1.0,3.0,100,0.00,,,0.55,0.000000,,2013-08-20 09:53:00,
2013-08-20 02:03:00,51.0,51.0,-100.00,WNW,302,1.0,3.0,100,0.00,,,0.55,0.000000,,2013-08-20 10:03:00,
2013-08-20 02:12:00,51.0,51.0,-100.00,WNW,302,1.0,3.0,100,0.00,,,0.55,0.000000,,2013-08-20 10:12:00,
2013-08-20 02:22:00,51.0,51.0,-100.00,WNW,302,1.0,3.0,100,0.00,,,0.55,0.000000,,2013-08-20 10:22:00,
2013-08-20 02:52:00,51.0,51.0,-100.00,NW,310,2.0,3.0,100,0.00,,,0.55,0.000000,,2013-08-20 10:52:00,
2013-08-20 03:02:00,51.0,51.0,-100.00,NW,310,2.0,3.0,100,0.00,,,0.55,0.000000,,2013-08-20 11:02:00,
2013-08-20 03:11:00,51.0,51.0,-100.00,NW,310,2.0,3.0,100,0.00,,,0.55,0.000000,,2013-08-20 11:11:00,
2013-08-20 03:21:00,51.0,51.0,-100.00,NW,310,2.0,3.0,100,0.00,,,0.55,0.000000,,2013-08-20 11:21:00,
2013-08-20 03:52:00,51.0,51.0,-100.00,NW,312,0.0,3.0,100,0.00,,,0.55,0.000000,,2013-08-20 11:52:00,
2013-08-20 04:01:00,51.0,51.0,-100.00,NW,312,0.0,3.0,100,0.00,,,0.55,0.000000,,2013-08-20 12:01:00,
2013-08-20 04:12:00,51.0,51.0,-100.00,NW,312,0.0,3.0,100,0.00,,,0.55,0.000000,,2013-08-20 12:12:00,
2013-08-20 04:21:00,51.0,51.0,-100.00,NW,312,0.0,3.0,100,0.00,,,0.55,0.000000,,2013-08-20 12:21:00,
2013-08-20 04:52:00,50.0,50.0,-100.00,South,174,1.0,3.0,100,0.00,,,0.55,0.000000,,2013-08-20 12:52:00,
2013-08-20 05:01:00,50.0,50.0,-100.00,South,174,1.0,3.0,100,0.00,,,0.55,0.000000,,2013-08-20 13:01:00,
2013-08-20 05:11:00,50.0,50.0,-100.00,South,174,1.0,3.0,100,0.00,,,0.55,0.000000,,2013-08-20 13:11:00,
2013-08-20 05:21:00,50.0,50.0,-100.00,South,174,1.0,3.0,100,0.00,,,0.55,0.000000,,2013-08-20 13:21:00,
2013-08-20 05:52:00,50.0,50.0,-100.00,ESE,121,0.0,1.0,100,0.00,,,0.55,0.000000,,2013-08-20 13:52:00,
2013-08-20 06:02:00,50.0,50.0,-100.00,ESE,121,0.0,1.0,100,0.00,,,0.55,0.000000,,2013-08-20 14:02:00,
2013-08-20 06:11:00,50.0,50.0,-100.00,ESE,121,0.0,1.0,100,0.00,,,0.55,0.000000,,2013-08-20 14:11:00,
2013-08-20 06:21:00,50.0,50.0,-100.00,ESE,121,0.0,1.0,100,0.00,,,0.55,0.000000,,2013-08-20 14:21:00,
2013-08-20 06:52:00,49.0,49.0,-100.00,SSE,153,1.0,1.0,100,0.00,,,0.55,0.000000,,2013-08-20 14:52:00,
2013-08-20 07:02:00,49.0,49.0,-100.00,SSE,153,1.0,1.0,100,0.00,,,0.55,0.000000,,2013-08-20 15:02:00,
2013-08-20 07:11:00,49.0,49.0,-100.00,SSE,153,1.0,1.0,100,0.00,,,0.55,0.000000,,2013-08-20 15:11:00,
2013-08-20 07:22:00,49.0,49.0,-100.00,SSE,153,1.0,1.0,100,0.00,,,0.55,0.000000,,2013-08-20 15:22:00,
2013-08-20 07:29:00,-999.0,-99.9,-100.00,SE,145,1.0,4.0,100,0.00,,,0.52,9.000000,,2013-08-20 15:29:00,
2013-08-20 07:53:00,50.0,50.0,-100.00,SE,145,1.0,4.0,100,0.00,,,0.52,9.000000,,2013-08-20 15:53:00,
2013-08-20 08:04:00,50.0,50.0,-100.00,SE,145,1.0,4.0,100,0.00,,,0.52,9.000000,,2013-08-20 16:04:00,
2013-08-20 08:15:00,50.0,50.0,-100.00,SE,145,1.0,4.0,100,0.00,,,0.52,9.000000,,2013-08-20 16:15:00,
2013-08-20 08:53:00,51.0,51.0,-100.00,SSE,149,2.0,5.0,100,0.00,,,0.50,24.000000,,2013-08-20 16:53:00,
2013-08-20 09:03:00,51.0,51.0,-100.00,SSE,149,2.0,5.0,100,0.00,,,0.50,24.000000,,2013-08-20 17:03:00,
2013-08-20 09:12:00,51.0,51.0,-100.00,SSE,149,2.0,5.0,100,0.00,,,0.50,24.000000,,2013-08-20 17:12:00,
2013-08-20 09:24:00,51.0,51.0,-100.00,SSE,149,2.0,5.0,100,0.00,,,0.50,24.000000,,2013-08-20 17:24:00,
2013-08-20 09:52:00,53.0,53.0,-100.00,NW,308,1.0,4.0,100,0.00,,,-99.99,62.000000,,2013-08-20 17:52:00,
2013-08-20 10:02:00,53.0,53.0,-100.00,NW,308,1.0,4.0,100,0.00,,,-99.99,62.000000,,2013-08-20 18:02:00,
2013-08-20 10:12:00,53.0,53.0,-100.00,NW,308,1.0,4.0,100,0.00,,,-99.99,62.000000,,2013-08-20 18:12:00,
2013-08-20 10:21:00,53.0,53.0,-100.00,NW,308,1.0,4.0,100,0.00,,,-99.99,62.000000,,2013-08-20 18:21:00,
2013-08-20 10:52:00,54.0,54.0,-100.00,SE,144,2.0,4.0,100,0.00,,,0.28,63.000000,,2013-08-20 18:52:00,
2013-08-20 11:01:00,54.0,54.0,-100.00,SE,144,2.0,4.0,100,0.00,,,0.28,63.000000,,2013-08-20 19:01:00,
2013-08-20 11:11:00,54.0,54.0,-100.00,SE,144,2.0,4.0,100,0.00,,,0.28,63.000000,,2013-08-20 19:11:00,
2013-08-20 11:21:00,54.0,54.0,-100.00,SE,144,2.0,4.0,100,0.00,,,0.28,63.000000,,2013-08-20 19:21:00,
2013-08-20 11:52:00,55.0,55.0,-100.00,WSW,238,1.0,2.0,100,0.00,,,0.25,86.000000,,2013-08-20 19:52:00,
2013-08-20 12:03:00,55.0,55.0,-100.00,WSW,238,1.0,2.0,100,0.00,,,0.25,86.000000,,2013-08-20 20:03:00,
2013-08-20 12:11:00,55.0,55.0,-100.00,WSW,238,1.0,2.0,100,0.00,,,0.25,86.000000,,2013-08-20 20:11:00,
2013-08-20 12:21:00,55.0,55.0,-100.00,WSW,238,1.0,2.0,100,0.00,,,0.25,86.000000,,2013-08-20 20:21:00,
2013-08-20 12:52:00,59.0,56.0,-100.00,ENE,77,3.0,5.0,90,0.00,,,0.23,231.000000,,2013-08-20 20:52:00,
2013-08-20 13:02:00,59.0,56.0,-100.00,ENE,77,3.0,5.0,90,0.00,,,0.23,231.000000,,2013-08-20 21:02:00,
2013-08-20 13:11:00,59.0,56.0,-100.00,ENE,77,3.0,5.0,90,0.00,,,0.23,231.000000,,2013-08-20 21:11:00,
2013-08-20 13:22:00,59.0,56.0,-100.00,ENE,77,3.0,5.0,90,0.00,,,0.23,231.000000,,2013-08-20 21:22:00,
2013-08-20 14:14:00,61.0,55.0,-100.00,East,87,2.0,5.0,82,0.00,,,0.14,311.000000,,2013-08-20 22:14:00,
2013-08-20 14:24:00,61.0,55.0,-100.00,East,87,2.0,5.0,82,0.00,,,0.14,311.000000,,2013-08-20 22:24:00,
2013-08-20 14:53:00,60.0,54.0,-100.00,East,84,2.0,3.0,80,0.00,,,0.14,172.000000,,2013-08-20 22:53:00,
2013-08-20 15:03:00,60.0,54.0,-100.00,East,84,2.0,3.0,80,0.00,,,0.14,172.000000,,2013-08-20 23:03:00,
2013-08-20 15:12:00,60.0,54.0,-100.00,East,84,2.0,3.0,80,0.00,,,0.14,172.000000,,2013-08-20 23:12:00,
2013-08-20 15:22:00,60.0,54.0,-100.00,East,84,2.0,3.0,80,0.00,,,0.14,172.000000,,2013-08-20 23:22:00,
2013-08-20 15:53:00,59.0,57.0,-100.00,ESE,102,2.0,4.0,93,0.04,,,0.14,139.000000,,2013-08-20 23:53:00,
2013-08-20 16:02:00,59.0,57.0,-100.00,ESE,102,2.0,4.0,93,0.04,,,0.14,139.000000,,2013-08-21 00:02:00,
2013-08-20 16:12:00,59.0,57.0,-100.00,ESE,102,2.0,4.0,93,0.04,,,0.14,139.000000,,2013-08-21 00:12:00,
2013-08-20 16:22:00,59.0,57.0,-100.00,ESE,102,2.0,4.0,93,0.04,,,0.14,139.000000,,2013-08-21 00:22:00,
2013-08-20 16:52:00,58.0,57.0,-100.00,North,351,0.0,2.0,95,0.04,,,0.14,86.000000,,2013-08-21 00:52:00,
2013-08-20 17:02:00,58.0,57.0,-100.00,North,351,0.0,2.0,95,0.04,,,0.14,86.000000,,2013-08-21 01:02:00,
2013-08-20 17:11:00,58.0,57.0,-100.00,North,351,0.0,2.0,95,0.04,,,0.14,86.000000,,2013-08-21 01:11:00,
2013-08-20 17:21:00,58.0,57.0,-100.00,North,351,0.0,2.0,95,0.04,,,0.14,86.000000,,2013-08-21 01:21:00,
2013-08-20 17:52:00,57.0,56.0,-100.00,ESE,119,2.0,4.0,98,0.03,,,0.16,67.000000,,2013-08-21 01:52:00,
2013-08-20 18:02:00,57.0,56.0,-100.00,ESE,119,2.0,4.0,98,0.03,,,0.16,67.000000,,2013-08-21 02:02:00,
2013-08-20 18:12:00,57.0,56.0,-100.00,ESE,119,2.0,4.0,98,0.03,,,0.16,67.000000,,2013-08-21 02:12:00,
2013-08-20 18:22:00,57.0,56.0,-100.00,ESE,119,2.0,4.0,98,0.03,,,0.16,67.000000,,2013-08-21 02:22:00,
2013-08-20 18:52:00,56.0,56.0,-100.00,South,176,1.0,4.0,99,0.02,,,0.16,50.000000,,2013-08-21 02:52:00,
2013-08-20 19:02:00,56.0,56.0,-100.00,South,176,1.0,4.0,99,0.02,,,0.16,50.000000,,2013-08-21 03:02:00,
2013-08-20 19:12:00,56.0,56.0,-100.00,South,176,1.0,4.0,99,0.02,,,0.16,50.000000,,2013-08-21 03:12:00,
2013-08-20 19:22:00,56.0,56.0,-100.00,South,176,1.0,4.0,99,0.02,,,0.16,50.000000,,2013-08-21 03:22:00,
2013-08-20 19:55:00,55.0,55.0,-100.00,ESE,122,2.0,3.0,99,0.06,,,0.21,21.000000,,2013-08-21 03:55:00,
2013-08-20 20:04:00,55.0,55.0,-100.00,ESE,122,2.0,3.0,99,0.06,,,0.21,21.000000,,2013-08-21 04:04:00,
2013-08-20 20:13:00,55.0,55.0,-100.00,ESE,122,2.0,3.0,99,0.06,,,0.21,21.000000,,2013-08-21 04:13:00,
2013-08-20 20:23:00,55.0,55.0,-100.00,ESE,122,2.0,3.0,99,0.06,,,0.21,21.000000,,2013-08-21 04:23:00,
2013-08-20 20:54:00,54.0,54.0,-100.00,WNW,291,0.0,3.0,100,0.00,,,0.21,13.000000,,2013-08-21 04:54:00,
2013-08-20 21:02:00,54.0,54.0,-100.00,WNW,291,0.0,3.0,100,0.00,,,0.21,13.000000,,2013-08-21 05:02:00,
2013-08-20 21:12:00,54.0,54.0,-100.00,WNW,291,0.0,3.0,100,0.00,,,0.21,13.000000,,2013-08-21 05:12:00,
2013-08-20 21:22:00,54.0,54.0,-100.00,WNW,291,0.0,3.0,100,0.00,,,0.21,13.000000,,2013-08-21 05:22:00,
2013-08-20 21:52:00,54.0,54.0,-100.00,SSE,153,2.0,6.0,100,0.00,,,0.20,4.000000,,2013-08-21 05:52:00,
2013-08-20 22:02:00,54.0,54.0,-100.00,SSE,153,2.0,6.0,100,0.00,,,0.20,4.000000,,2013-08-21 06:02:00,
2013-08-20 22:12:00,54.0,54.0,-100.00,SSE,153,2.0,6.0,100,0.00,,,0.20,4.000000,,2013-08-21 06:12:00,
2013-08-20 22:22:00,54.0,54.0,-100.00,SSE,153,2.0,6.0,100,0.00,,,0.20,4.000000,,2013-08-21 06:22:00,
2013-08-20 22:52:00,52.0,52.0,-100.00,WNW,295,1.0,4.0,100,0.01,,,0.21,0.000000,,2013-08-21 06:52:00,
2013-08-20 23:01:00,52.0,52.0,-100.00,WNW,295,1.0,4.0,100,0.01,,,0.21,0.000000,,2013-08-21 07:01:00,
2013-08-20 23:11:00,52.0,52.0,-100.00,WNW,295,1.0,4.0,100,0.01,,,0.21,0.000000,,2013-08-21 07:11:00,
2013-08-20 23:21:00,52.0,52.0,-100.00,WNW,295,1.0,4.0,100,0.01,,,0.21,0.000000,,2013-08-21 07:21:00,
2013-08-20 23:53:00,52.0,52.0,-100.00,WNW,283,2.0,6.0,100,0.00,,,0.21,0.000000,,2013-08-21 07:53:00,